Skip Page Navigation
NASA JPL Caltech
NASA Logo - Jet Propulsion Laboratory + View the NASA Portal
+ Center for Near-Earth Object Studies
JPL Home Earth Solar System Stars & Galaxies Technology
JPL Solar System Dynamics
BODIES ORBITS EPHEMERIDES TOOLS PHYSICAL DATA DISCOVERY FAQ SITE MAP
IMPORTANT: The SSD Announcement email list is now available. Major changes are coming in the near future, including possible hostname and/or URL changes. To be notified of such changes, subscribe to this email list.

Please visit this page for more details.


JPL Small-Body Database Browser
Search: [ help ]  
410225 (2007 SN15)
Classification: Main-belt Asteroid          SPK-ID: 2410225
Ephemeris | Orbit Diagram | Orbital Elements | Mission Design | Physical Parameters | Discovery Circumstances ]

[ show orbit diagram ]
Orbital Elements at Epoch 2458600.5 (2019-Apr-27.0) TDB
Reference: JPL 14 (heliocentric ecliptic J2000)
 Element Value Uncertainty (1-sigma)   Units 
e .1792082151308722 5.8391e-08  
a 2.380901043082534 1.8976e-08 au
q 1.954224016748481 1.3972e-07 au
i 4.911656577707367 6.9343e-06 deg
node 286.6129500265955 9.5295e-05 deg
peri 119.5521725699685 9.9298e-05 deg
M 39.75351556866768 2.6712e-05 deg
tp 2458452.322083081870
(2018-Nov-29.82208308)
9.9245e-05 TDB
period 1341.870003883902
3.67
1.6042e-05
4.392e-08
d
yr
n .2682823216541227 3.2073e-09 deg/d
Q 2.807578069416587 2.2376e-08 au
  Orbit Determination Parameters
   # obs. used (total)      152  
   data-arc span      6565 days (17.97 yr)  
   first obs. used      2000-12-21  
   last obs. used      2018-12-12  
   planetary ephem.      DE431  
   SB-pert. ephem.      SB431-N16  
   condition code      0  
   norm. resid. RMS      .56618  
   source      ORB  
   producer      Otto Matic  
   solution date      2019-Jul-14 13:25:35  

Additional Information
 Earth MOID = .969069 au 
 Jupiter MOID = 2.58582 au 
 T_jup = 3.512 
[ show covariance matrix ]

Ephemeris | Orbit Diagram | Orbital Elements | Mission Design | Physical Parameters | Discovery Circumstances ]

Physical Parameter Table
Parameter Symbol Value Units Sigma Reference Notes
absolute magnitude H 17.3   n/a MPO460557  

410225 (2007 SN15)          Discovered 2007-Sep-10 by Mt. Lemmon Survey at Mount Lemmon
Reference: Last Updated: 2014-10-09
Ephemeris | Orbit Diagram | Orbital Elements | Mission Design | Physical Parameters | Discovery Circumstances ]
ABOUT SSD CREDITS/AWARDS PRIVACY/COPYRIGHT GLOSSARY LINKS
FirstGov 2020-Jan-28 20:11 UT
(server date/time)  
NASA Home Page
Site Manager:   Ryan S. Park
Webmaster  Alan B. Chamberlin